Simultaneous Nadir Overpasses (SNOs) Predictions

Prediction of SNOs between AQUA and GOES-15 Satellite Orbit:

Table of predicted SNOs for the next 14.0 days since TLE Epoch: 4/22/2023
Index Date Time (AQUA) AQUA Lat,Lon GOES-15 Lat,Lon Distance(km) Time Diff (sec)
1 04/22/2023 22:54:18 0.02,-136.74 -0.14,-137.35 70.02 80
2 04/23/2023 11:15:07 1.03,-141.79 0.12,-137.64 473.10 80
3 04/25/2023 11:01:19 0.12,-138.45 0.13,-138.60 16.80 80
4 04/27/2023 23:08:27 -0.22,-140.20 -0.12,-139.77 48.19 80
5 04/29/2023 22:54:36 0.69,-136.84 -0.14,-140.73 441.57 80
6 04/30/2023 11:15:26 0.33,-141.90 0.12,-141.01 101.70 80
7 05/02/2023 11:01:34 -0.58,-138.54 0.13,-141.96 387.89 80
8 05/02/2023 23:22:32 -0.44,-143.63 -0.11,-142.17 166.77 80
9 05/04/2023 23:08:39 0.47,-140.27 -0.12,-143.11 322.35 80
10 05/05/2023 11:29:29 0.52,-145.33 0.09,-143.39 221.26 80
